Flag for Canada Weather past 2 weeks in Ottawa, Ontario, Canada

Now
61 °F

Scattered clouds.


Feels Like: 61 °F
Forecast: 59 / 84 °F
Wind: 3 mph from South

Location: Ottawa Int'L. Ont.

Current Time: Jul 6, 2015 at 8:24:31 AM

Latest Report: Jul 6, 2015 at 7:00 AM


Visibility: 15 mi

Pressure: 30.12 "Hg

Humidity: 94%

Dew point: 59 °F

Location of OttawaLocation

Historic Weather in Ottawa — Graph

°F

Ottawa temperature yesterday

Maximum temperature yesterday: 81 °F (at 5:00 PM)
Minimum temperature yesterday: 57 °F (at 6:00 AM)
Average temperature yesterday: 70 °F

Past Weeks' High & Low Weather Summary

 TemperatureHumidityPressure
High82 °F (Jun 23, 2:00 PM)100% (Jun 21, 10:00 AM)30.16 "Hg (Jun 21, 10:00 AM)
Low50 °F (Jun 26, 3:00 AM)31% (Jun 26, 5:00 PM)29.52 "Hg (Jun 23, 1:00 PM)
Average65 °F72%29.91 "Hg
* Reported Jun 21 7:00 AM — Jul 6 7:00 AM, Ottawa, Weather by CustomWeather, © 2015

Note: Actual official high and low records may vary slightly from our data, if they occured in-between our weather recording intervals... More about our weather records

Advertising

Ottawa weather history for previous 24 hours

 ConditionsComfort  
Time TempWeatherWind HumidityBarometerVisibility
7:00 AM
Mon, Jul 6
61 °FScattered clouds.3 mph94%30.12 "Hg15 mi
6:00 AM59 °FPassing clouds.3 mph94%30.12 "Hg10 mi
5:00 AM59 °FPassing clouds.No wind94%30.11 "Hg15 mi
4:00 AM59 °FClear.7 mph100%30.09 "Hg15 mi
3:00 AM61 °FClear.7 mph94%30.10 "Hg15 mi
2:00 AM64 °FPassing clouds.7 mph88%30.10 "Hg15 mi
1:00 AM63 °FPassing clouds.3 mph94%30.11 "Hg15 mi
12:00 AM66 °FPassing clouds.5 mph83%30.11 "Hg15 mi
11:00 PM
Sun, Jul 5
68 °FPassing clouds.6 mph83%30.11 "Hg15 mi
10:00 PM70 °FPassing clouds.6 mph78%30.11 "Hg15 mi
9:00 PM72 °FScattered clouds.3 mph65%30.09 "Hg15 mi
8:00 PM75 °FScattered clouds.5 mph61%30.07 "Hg15 mi
7:00 PM79 °FScattered clouds.6 mph48%30.06 "Hg15 mi
6:00 PM79 °FBroken clouds.8 mph51%30.07 "Hg15 mi
5:00 PM81 °FBroken clouds.8 mph45%30.08 "Hg15 mi
4:00 PM79 °FBroken clouds.8 mph51%30.08 "Hg15 mi
3:00 PM79 °FBroken clouds.10 mph48%30.08 "Hg15 mi
2:00 PM79 °FScattered clouds.13 mph48%30.09 "Hg15 mi
1:00 PM77 °FScattered clouds.15 mph54%30.09 "Hg15 mi
12:00 PM77 °FScattered clouds.14 mph54%30.09 "Hg15 mi
11:00 AM75 °FPassing clouds.9 mph61%30.08 "Hg15 mi
10:00 AM73 °FPassing clouds.6 mph65%30.07 "Hg12 mi
9:00 AM70 °FSunny.3 mph78%30.07 "Hg12 mi
8:00 AM66 °FPassing clouds.5 mph83%30.06 "Hg12 mi
Weather by CustomWeather, © 2015

See weather overviewHow to use our weather pages